PROFILE

 METAR AND TAF INFORMATION
ADDS - METARS form results

(0546 UTC 22 September 2019)
http://aviationweather.gov/metar/data/
 
LOWS 220520Z VRB01KT 9999 FEW001 BKN250 06/05 Q1014 NOSIG
LOWS 220450Z 33003KT 9999 FEW001 SCT250 06/06 Q1014 TEMPO 3500 BR
TAF LOWS 220515Z 2206/2306 15005KT CAVOK TX21/2215Z TN09/2206Z BECMG 2210/2212 35005KT BECMG 2216/2218 15005KT 9999 BKN120 

 AIRPORT MAP

 RUNWAY INFORMATION
Runway 16 Runway length 9022 ft Runway width 148 ft
Runway elevation 1411 ft Runway displaced threshold 656 ft Runway heading 157
Runway 34 Runway length 9022 ft Runway width 148 ft
Runway elevation 1411 ft Runway displaced threshold 787 ft Runway heading 337

 AIRPORT FREQUENCIES
Type APP Name APP Frequency 123.725 MHZ
Type ATIS Name ATIS Frequency 125.725 MHZ
Type GND Name GND Frequency 121.75 MHZ
Type TWR Name TWR Frequency 118.1 MHZ

 AIRPORT NEAR NAVIGATION AIDS
Type VOR-DME Name Salzburg Frequency 113800 KHZ
Type NDB Name Salzburg Frequency 382 KHZ
Type NDB Name Salzburg Frequency 410 KHZ
Type NDB Name Salzburg Frequency 356 KHZ